| time (UTC) | temp F | wind direction | speed knots | gust knots | rain 1hr in | rain 24hr in | rain mn in | humidity % | barometer mb |
| 20260505194531 | 66 | 224 | 9.6 | 20.0 | 0.00 | 0.00 | 0.00 | 55 | 1002.7 |
| 20260505193042 | 66 | 230 | 6.1 | 23.5 | 0.00 | 0.00 | 0.00 | 54 | 1002.6 |
| 20260505191530 | 66 | 230 | 8.7 | 22.6 | 0.00 | 0.00 | 0.00 | 54 | 1002.7 |
| 20260505190036 | 66 | 225 | 5.2 | 29.5 | 0.00 | 0.00 | 0.00 | 53 | 1002.6 |
| 20260505184529 | 67 | 219 | 7.0 | 22.6 | 0.00 | 0.00 | 0.00 | 53 | 1002.7 |
| 20260505183044 | 67 | 208 | 9.6 | 28.7 | 0.00 | 0.00 | 0.00 | 52 | 1002.6 |
| 20260505181530 | 68 | 222 | 10.4 | 33.0 | 0.00 | 0.00 | 0.00 | 50 | 1002.4 |
| 20260505180036 | 69 | 247 | 13.9 | 34.8 | 0.00 | 0.00 | 0.00 | 49 | 1002.5 |
| 20260505174536 | 70 | 217 | 13.0 | 40.8 | 0.00 | 0.00 | 0.00 | 48 | 1002.5 |
| 20260505173035 | 71 | 230 | 11.3 | 41.7 | 0.00 | 0.00 | 0.00 | 46 | 1002.6 |
| 20260505171530 | 72 | 230 | 20.0 | 42.6 | 0.00 | 0.00 | 0.00 | 45 | 1002.5 |
| 20260505170027 | 73 | 215 | 20.9 | 41.7 | 0.00 | 0.00 | 0.00 | 44 | 1002.6 |
| 20260505164533 | 73 | 213 | 10.4 | 46.1 | 0.00 | 0.00 | 0.00 | 44 | 1002.6 |
| 20260505163024 | 73 | 230 | 17.4 | 48.7 | 0.00 | 0.00 | 0.00 | 45 | 1002.7 |
| 20260505161522 | 74 | 253 | 17.4 | 40.8 | 0.00 | 0.00 | 0.00 | 44 | 1002.9 |
| 20260505153027 | 75 | 250 | 12.2 | 45.2 | 0.00 | 0.00 | 0.00 | 42 | 1002.9 |
| 20260505151519 | 76 | 263 | 21.7 | 46.9 | 0.00 | 0.00 | 0.00 | 41 | 1003.0 |
| 20260505124507 | 81 | 214 | 25.2 | 48.7 | 0.00 | 0.00 | 0.00 | 30 | 1004.0 |
| 20260505123005 | 82 | 224 | 19.1 | 38.2 | 0.00 | 0.00 | 0.00 | 28 | 1004.2 |
| 20260505121504 | 81 | 215 | 16.5 | 38.2 | 0.00 | 0.00 | 0.00 | 26 | 1004.4 |
| 20260505120002 | 81 | 257 | 13.9 | 38.2 | 0.00 | 0.00 | 0.00 | 28 | 1004.6 |
| 20260505114604 | 80 | 226 | 13.0 | 33.0 | 0.00 | 0.00 | 0.00 | 29 | 1004.6 |
| 20260505113058 | 80 | 226 | 13.9 | 39.1 | 0.00 | 0.00 | 0.00 | 29 | 1004.8 |
| 20260505111600 | 80 | 187 | 13.0 | 40.0 | 0.00 | 0.00 | 0.00 | 30 | 1004.8 |
| 20260505101546 | 75 | 240 | 7.8 | 18.2 | 0.00 | 0.00 | 0.00 | 48 | 1005.7 |
| 20260505100039 | 73 | 70 | 3.5 | 9.6 | 0.00 | 0.00 | 0.00 | 49 | 1006.0 |
| 20260505094534 | 72 | 174 | 0.0 | 10.4 | 0.00 | 0.00 | 0.00 | 50 | 1006.3 |
| 20260505093037 | 71 | 178 | 0.0 | 7.0 | 0.00 | 0.00 | 0.00 | 52 | 1006.7 |
| 20260505091538 | 70 | 181 | 0.0 | 9.6 | 0.00 | 0.00 | 0.00 | 51 | 1007.0 |
| 20260505090041 | 69 | 178 | 7.8 | 16.5 | 0.00 | 0.00 | 0.00 | 51 | 1007.1 |
| 20260505084524 | 68 | 191 | 3.5 | 12.2 | 0.00 | 0.00 | 0.00 | 55 | 1007.2 |
| 20260505083018 | 67 | 175 | 7.0 | 13.0 | 0.00 | 0.00 | 0.00 | 57 | 1007.2 |
| 20260505081513 | 65 | 165 | 6.1 | 12.2 | 0.00 | 0.00 | 0.00 | 59 | 1007.2 |
| 20260505080010 | 64 | 129 | 0.9 | 11.3 | 0.00 | 0.00 | 0.00 | 61 | 1007.3 |
| 20260505074507 | 63 | 134 | 5.2 | 8.7 | 0.00 | 0.00 | 0.00 | 62 | 1007.3 |
| 20260505073008 | 62 | 212 | 0.0 | 0.0 | 0.00 | 0.00 | 0.00 | 65 | 1007.6 |
| 20260505071503 | 61 | 198 | 0.0 | 0.0 | 0.00 | 0.00 | 0.00 | 67 | 1007.6 |
| 20260505070002 | 60 | 198 | 0.0 | 0.0 | 0.00 | 0.00 | 0.00 | 69 | 1007.6 |
| 20260505064502 | 59 | 198 | 0.0 | 0.0 | 0.00 | 0.00 | 0.00 | 68 | 1007.5 |
| 20260505063004 | 59 | 199 | 0.0 | 0.0 | 0.00 | 0.00 | 0.00 | 70 | 1007.4 |
| 20260505061605 | 58 | 200 | 0.0 | 2.6 | 0.00 | 0.00 | 0.00 | 71 | 1007.4 |
| 20260505060100 | 58 | 200 | 0.0 | 0.0 | 0.00 | 0.00 | 0.00 | 73 | 1007.5 |
| 20260505054600 | 57 | 200 | 0.0 | 0.0 | 0.00 | 0.00 | 0.00 | 71 | 1007.4 |
| 20260505053103 | 57 | 200 | 0.0 | 0.0 | 0.00 | 0.00 | 0.00 | 72 | 1007.4 |
| 20260505051558 | 56 | 200 | 0.0 | 0.0 | 0.00 | 0.00 | 0.00 | 73 | 1007.3 |
| 20260505050123 | 54 | 200 | 0.0 | 0.0 | 0.00 | 0.00 | 0.00 | 75 | 1007.3 |
| 20260505041558 | 52 | 194 | 0.0 | 0.0 | 0.00 | 0.00 | 0.00 | 77 | 1007.3 |
| 20260505040053 | 52 | 194 | 0.0 | 0.0 | 0.00 | 0.00 | 0.00 | 76 | 1007.3 |
| 20260505034540 | 52 | 194 | 0.0 | 0.0 | 0.00 | 0.00 | 0.00 | 75 | 1007.3 |
| 20260505033045 | 52 | 194 | 0.0 | 0.0 | 0.00 | 0.00 | 0.00 | 75 | 1007.3 |
| 20260505031544 | 53 | 194 | 0.0 | 0.0 | 0.00 | 0.00 | 0.00 | 74 | 1007.3 |
| 20260505030040 | 53 | 194 | 0.0 | 0.0 | 0.00 | 0.00 | 0.00 | 74 | 1007.4 |
| 20260505024532 | 53 | 194 | 0.0 | 0.0 | 0.00 | 0.00 | 0.00 | 72 | 1007.5 |
| 20260505023039 | 55 | 194 | 0.0 | 0.0 | 0.00 | 0.00 | 0.00 | 70 | 1007.5 |
| 20260505021529 | 55 | 194 | 0.0 | 0.0 | 0.00 | 0.00 | 0.00 | 68 | 1007.6 |
| 20260505020026 | 56 | 194 | 0.0 | 0.0 | 0.00 | 0.00 | 0.00 | 68 | 1007.5 |
| 20260505014524 | 56 | 194 | 0.0 | 0.0 | 0.00 | 0.00 | 0.00 | 67 | 1007.6 |
| 20260505013023 | 57 | 194 | 0.0 | 0.0 | 0.00 | 0.00 | 0.00 | 64 | 1007.6 |
| 20260505011526 | 58 | 194 | 0.0 | 0.0 | 0.00 | 0.00 | 0.00 | 63 | 1007.7 |
| 20260505010015 | 58 | 194 | 0.0 | 0.0 | 0.00 | 0.00 | 0.00 | 63 | 1007.7 |
| 20260505004524 | 59 | 194 | 0.0 | 0.0 | 0.00 | 0.00 | 0.00 | 63 | 1007.8 |
| 20260505003011 | 59 | 194 | 0.0 | 0.0 | 0.00 | 0.00 | 0.00 | 63 | 1008.0 |
| 20260505001509 | 60 | 194 | 0.0 | 0.0 | 0.00 | 0.00 | 0.00 | 61 | 1008.2 |
| 20260505000010 | 60 | 194 | 0.0 | 0.0 | 0.00 | 0.00 | 0.00 | 61 | 1008.2 |
| 20260504234504 | 61 | 194 | 0.0 | 0.0 | 0.00 | 0.00 | 0.00 | 59 | 1008.4 |
| 20260504233002 | 62 | 194 | 0.0 | 0.0 | 0.00 | 0.00 | 0.00 | 58 | 1008.4 |
| 20260504231559 | 62 | 194 | 0.0 | 0.0 | 0.00 | 0.00 | 0.00 | 56 | 1008.4 |
| 20260504230057 | 63 | 194 | 0.0 | 0.0 | 0.00 | 0.00 | 0.00 | 55 | 1008.5 |
| 20260504224608 | 63 | 194 | 0.0 | 0.0 | 0.00 | 0.00 | 0.00 | 55 | 1008.6 |
| 20260504223052 | 64 | 196 | 0.0 | 10.4 | 0.00 | 0.00 | 0.00 | 54 | 1008.6 |
| 20260504221549 | 64 | 206 | 0.0 | 7.8 | 0.00 | 0.00 | 0.00 | 53 | 1008.8 |
| 20260504220047 | 65 | 207 | 0.9 | 8.7 | 0.00 | 0.00 | 0.00 | 52 | 1008.9 |
| 20260504214546 | 65 | 214 | 4.3 | 13.9 | 0.00 | 0.00 | 0.00 | 52 | 1008.9 |
| 20260504213104 | 65 | 206 | 4.3 | 10.4 | 0.00 | 0.00 | 0.00 | 51 | 1009.1 |
| 20260504211545 | 65 | 190 | 0.0 | 11.3 | 0.00 | 0.00 | 0.00 | 51 | 1009.1 |
| 20260504210047 | 66 | 179 | 1.7 | 6.1 | 0.00 | 0.00 | 0.00 | 50 | 1009.2 |
| 20260504204547 | 67 | 178 | 0.9 | 8.7 | 0.00 | 0.00 | 0.00 | 48 | 1009.3 |
| 20260504203052 | 68 | 183 | 0.9 | 13.9 | 0.00 | 0.00 | 0.00 | 46 | 1009.2 |
| 20260504201543 | 68 | 177 | 3.5 | 12.2 | 0.00 | 0.00 | 0.00 | 45 | 1009.2 |
| 20260504200046 | 69 | 209 | 0.0 | 17.4 | 0.00 | 0.00 | 0.00 | 44 | 1009.3 |